Location: Cheyres
(46.8153°N, 6.7877°E)
Time: 11:32:29
(UTC+00:00)

Cosmos 2082 Rocket - Visible Passes

Search period start: 27 September 2021 00:00
Search period end: 07 October 2021 00:00
Orbit: 831 x 855 km, 71.0° (Epoch: 26 September)

Date Brightness Start Highest point End Pass type
(mag) Time Alt. Az. Time Alt. Az. Time Alt. Az.
27 Sep 5.3 18:38:50 10° WNW 18:41:07 12° W 18:43:22 10° WSW visible
28 Sep 5.3 18:24:05 10° WNW 18:26:35 13° W 18:29:06 10° WSW visible
29 Sep 5.4 18:09:20 10° WNW 18:12:05 14° W 18:14:48 10° SW visible
30 Sep 5.4 17:54:38 10° WNW 17:57:33 14° W 18:00:28 10° SW visible
01 Oct 5.4 17:39:56 10° WNW 17:43:02 15° W 17:46:07 10° SW visible
03 Oct 5.3 04:52:32 10° SE 04:56:01 17° E 04:59:31 10° ENE visible
04 Oct 5.3 04:38:10 10° SE 04:41:30 16° E 04:44:51 10° ENE visible
05 Oct 5.2 04:23:48 10° SE 04:26:59 15° E 04:30:10 10° ENE visible
06 Oct 5.2 04:09:27 10° SE 04:12:28 15° E 04:15:29 10° ENE visible
